Time,TemperatureF,DewpointF,PressureIn,WindDirection,WindDirectionDegrees,WindSpeedMPH,WindSpeedGustMPH,Humidity,HourlyPrecipIn,Conditions,Clouds,dailyrainin,SoftwareType,DateUTC
2013-03-20 00:00:00,5.2,-30.1,29.03,West,281,3.6,3.6,17,0.00,,,0.00,VWS V13.01,2013-03-20 05:00:00,
2013-03-20 00:05:00,5.7,-29.7,29.03,NW,315,8.1,8.1,17,0.00,,,0.00,VWS V13.01,2013-03-20 05:05:00,
2013-03-20 00:10:00,5.9,-29.5,29.03,NW,310,3.1,3.6,17,0.00,,,0.00,VWS V13.01,2013-03-20 05:10:00,
2013-03-20 00:15:00,5.7,-29.7,29.03,WNW,300,3.6,3.6,17,0.00,,,0.00,VWS V13.01,2013-03-20 05:15:00,
2013-03-20 00:20:00,5.9,-29.5,29.03,WNW,302,2.7,4.9,17,0.00,,,0.00,VWS V13.01,2013-03-20 05:20:00,
2013-03-20 00:25:00,5.4,-30.0,29.03,NW,310,2.7,2.7,17,0.00,,,0.00,VWS V13.01,2013-03-20 05:25:00,
2013-03-20 00:30:00,5.2,-30.1,29.03,WNW,295,0.0,2.2,17,0.00,,,0.00,VWS V13.01,2013-03-20 05:30:00,
2013-03-20 00:35:00,5.4,-30.0,29.03,West,267,2.2,5.4,17,0.00,,,0.00,VWS V13.01,2013-03-20 05:35:00,
2013-03-20 00:40:00,4.5,-30.7,29.03,WNW,288,2.2,2.2,17,0.00,,,0.00,VWS V13.01,2013-03-20 05:40:00,
2013-03-20 00:45:00,5.2,-30.1,29.03,West,274,2.2,4.0,17,0.00,,,0.00,VWS V13.01,2013-03-20 05:45:00,
2013-03-20 00:50:00,5.0,-30.3,29.03,WNW,297,4.0,6.3,17,0.00,,,0.00,VWS V13.01,2013-03-20 05:50:00,
2013-03-20 00:55:00,4.1,-31.0,29.03,WNW,296,2.2,2.7,17,0.00,,,0.00,VWS V13.01,2013-03-20 05:55:00,
2013-03-20 01:00:00,3.9,-31.2,29.03,West,272,2.2,2.2,17,0.00,,,0.00,VWS V13.01,2013-03-20 06:00:00,
2013-03-20 01:05:00,4.1,-31.0,29.03,West,276,3.6,7.6,17,0.00,,,0.00,VWS V13.01,2013-03-20 06:05:00,
2013-03-20 01:10:00,3.4,-31.6,29.03,NW,326,0.0,4.9,17,0.00,,,0.00,VWS V13.01,2013-03-20 06:10:00,
2013-03-20 01:15:00,2.5,-32.4,29.03,NNW,328,3.1,3.1,17,0.00,,,0.00,VWS V13.01,2013-03-20 06:15:00,
2013-03-20 01:20:00,2.8,-32.1,29.03,NW,307,2.2,2.7,17,0.00,,,0.00,VWS V13.01,2013-03-20 06:20:00,
2013-03-20 01:25:00,3.0,-31.9,29.03,WSW,239,3.1,3.1,17,0.00,,,0.00,VWS V13.01,2013-03-20 06:25:00,
2013-03-20 01:30:00,3.0,-31.9,29.03,NW,304,0.0,0.0,17,0.00,,,0.00,VWS V13.01,2013-03-20 06:30:00,
2013-03-20 01:35:00,2.7,-32.2,29.03,WSW,257,0.0,0.0,17,0.00,,,0.00,VWS V13.01,2013-03-20 06:35:00,
2013-03-20 01:40:00,2.5,-32.4,29.03,West,271,0.0,2.2,17,0.00,,,0.00,VWS V13.01,2013-03-20 06:40:00,
2013-03-20 01:45:00,2.5,-32.4,29.03,WNW,297,2.2,4.0,17,0.00,,,0.00,VWS V13.01,2013-03-20 06:45:00,
2013-03-20 01:50:00,2.5,-32.4,29.03,NW,304,0.0,3.6,17,0.00,,,0.00,VWS V13.01,2013-03-20 06:50:00,
2013-03-20 01:55:00,2.5,-32.4,29.06,West,280,0.0,0.0,17,0.00,,,0.00,VWS V13.01,2013-03-20 06:55:00,
2013-03-20 02:00:00,2.1,-32.7,29.06,WNW,298,0.0,3.1,17,0.00,,,0.00,VWS V13.01,2013-03-20 07:00:00,
2013-03-20 02:05:00,1.9,-32.8,29.06,WSW,250,0.0,0.0,17,0.00,,,0.00,VWS V13.01,2013-03-20 07:05:00,
2013-03-20 02:10:00,2.3,-32.5,29.06,West,281,0.0,0.0,17,0.00,,,0.00,VWS V13.01,2013-03-20 07:10:00,
2013-03-20 02:15:00,1.9,-32.8,29.06,WNW,289,0.0,0.0,17,0.00,,,0.00,VWS V13.01,2013-03-20 07:15:00,
2013-03-20 02:20:00,1.9,-32.8,29.06,WNW,285,2.2,2.2,17,0.00,,,0.00,VWS V13.01,2013-03-20 07:20:00,
2013-03-20 02:25:00,1.4,-33.3,29.06,WNW,290,2.2,2.2,17,0.00,,,0.00,VWS V13.01,2013-03-20 07:25:00,
2013-03-20 02:30:00,1.6,-33.1,29.06,WNW,284,0.0,0.0,17,0.00,,,0.00,VWS V13.01,2013-03-20 07:30:00,
2013-03-20 02:35:00,1.8,-33.0,29.06,WNW,286,2.7,2.7,17,0.00,,,0.00,VWS V13.01,2013-03-20 07:35:00,
2013-03-20 02:40:00,2.5,-32.4,29.03,WNW,286,2.2,4.0,17,0.00,,,0.00,VWS V13.01,2013-03-20 07:40:00,
2013-03-20 02:45:00,2.5,-32.4,29.03,WNW,300,3.6,4.9,17,0.00,,,0.00,VWS V13.01,2013-03-20 07:45:00,
2013-03-20 02:50:00,2.7,-32.2,29.03,WNW,303,3.6,3.6,17,0.00,,,0.00,VWS V13.01,2013-03-20 07:50:00,
2013-03-20 02:55:00,2.8,-32.1,29.06,West,280,5.4,5.4,17,0.00,,,0.00,VWS V13.01,2013-03-20 07:55:00,
2013-03-20 03:00:00,2.5,-32.4,29.06,WNW,289,2.2,2.2,17,0.00,,,0.00,VWS V13.01,2013-03-20 08:00:00,
2013-03-20 03:05:00,2.5,-32.4,29.06,WNW,300,3.1,3.1,17,0.00,,,0.00,VWS V13.01,2013-03-20 08:05:00,
2013-03-20 03:10:00,2.3,-32.5,29.03,WNW,287,2.7,2.7,17,0.00,,,0.00,VWS V13.01,2013-03-20 08:10:00,
2013-03-20 03:15:00,1.9,-32.8,29.03,NW,313,2.7,3.1,17,0.00,,,0.00,VWS V13.01,2013-03-20 08:15:00,
2013-03-20 03:20:00,1.9,-32.8,29.03,WNW,291,0.0,0.0,17,0.00,,,0.00,VWS V13.01,2013-03-20 08:20:00,
2013-03-20 03:25:00,1.8,-33.0,29.03,WNW,287,0.0,0.0,17,0.00,,,0.00,VWS V13.01,2013-03-20 08:25:00,
2013-03-20 03:30:00,1.8,-33.0,29.03,West,273,0.0,0.0,17,0.00,,,0.00,VWS V13.01,2013-03-20 08:30:00,
2013-03-20 03:35:00,1.9,-32.8,29.03,WNW,283,6.3,6.3,17,0.00,,,0.00,VWS V13.01,2013-03-20 08:35:00,
2013-03-20 03:40:00,1.4,-33.3,29.03,West,269,0.0,0.0,17,0.00,,,0.00,VWS V13.01,2013-03-20 08:40:00,
2013-03-20 03:45:00,0.9,-33.7,29.03,WSW,253,3.6,3.6,17,0.00,,,0.00,VWS V13.01,2013-03-20 08:45:00,
2013-03-20 03:50:00,0.9,-33.7,29.03,NW,325,0.0,0.0,17,0.00,,,0.00,VWS V13.01,2013-03-20 08:50:00,
2013-03-20 03:55:00,0.7,-33.9,29.03,WSW,241,0.0,0.0,17,0.00,,,0.00,VWS V13.01,2013-03-20 08:55:00,
2013-03-20 04:00:00,1.2,-33.4,29.03,NW,307,0.0,0.0,17,0.00,,,0.00,VWS V13.01,2013-03-20 09:00:00,
2013-03-20 04:05:00,1.6,-33.1,29.03,WNW,285,3.6,6.3,17,0.00,,,0.00,VWS V13.01,2013-03-20 09:05:00,
2013-03-20 04:10:00,1.2,-33.4,29.03,NW,318,0.0,3.6,17,0.00,,,0.00,VWS V13.01,2013-03-20 09:10:00,
2013-03-20 04:15:00,1.4,-33.3,29.03,WNW,292,3.6,3.6,17,0.00,,,0.00,VWS V13.01,2013-03-20 09:15:00,
2013-03-20 04:20:00,1.4,-33.3,29.03,WNW,285,0.0,2.7,17,0.00,,,0.00,VWS V13.01,2013-03-20 09:20:00,
2013-03-20 04:25:00,1.9,-32.8,29.03,NW,310,4.9,4.9,17,0.00,,,0.00,VWS V13.01,2013-03-20 09:25:00,
2013-03-20 04:30:00,0.7,-33.9,29.03,WNW,299,0.0,2.2,17,0.00,,,0.00,VWS V13.01,2013-03-20 09:30:00,
2013-03-20 04:35:00,0.3,-34.2,29.03,NW,317,0.0,3.1,17,0.00,,,0.00,VWS V13.01,2013-03-20 09:35:00,
2013-03-20 04:40:00,0.0,-34.5,29.03,WSW,255,0.0,0.0,17,0.00,,,0.00,VWS V13.01,2013-03-20 09:40:00,
2013-03-20 04:45:00,1.0,-33.6,29.03,NW,311,3.1,6.3,17,0.00,,,0.00,VWS V13.01,2013-03-20 09:45:00,
2013-03-20 04:50:00,0.5,-34.0,29.03,West,274,0.0,0.0,17,0.00,,,0.00,VWS V13.01,2013-03-20 09:50:00,
2013-03-20 04:55:00,-0.6,-34.9,29.06,WSW,252,3.6,3.6,17,0.00,,,0.00,VWS V13.01,2013-03-20 09:55:00,
2013-03-20 05:00:00,-0.9,-35.2,29.06,WNW,294,2.2,2.2,17,0.00,,,0.00,VWS V13.01,2013-03-20 10:00:00,
2013-03-20 05:05:00,-0.9,-35.2,29.06,WNW,285,0.0,0.0,17,0.00,,,0.00,VWS V13.01,2013-03-20 10:05:00,
2013-03-20 05:10:00,-0.9,-35.2,29.06,NW,311,2.2,2.7,17,0.00,,,0.00,VWS V13.01,2013-03-20 10:10:00,
2013-03-20 05:15:00,-1.3,-35.5,29.06,West,281,0.0,0.0,17,0.00,,,0.00,VWS V13.01,2013-03-20 10:15:00,
2013-03-20 05:20:00,-0.9,-35.2,29.06,NW,320,0.0,0.0,17,0.00,,,0.00,VWS V13.01,2013-03-20 10:20:00,
2013-03-20 05:25:00,-0.8,-35.1,29.06,West,268,2.7,2.7,17,0.00,,,0.00,VWS V13.01,2013-03-20 10:25:00,
2013-03-20 05:30:00,-0.9,-35.2,29.06,West,274,0.0,0.0,17,0.00,,,0.00,VWS V13.01,2013-03-20 10:30:00,
2013-03-20 05:35:00,-1.3,-35.5,29.06,WNW,293,0.0,4.0,17,0.00,,,0.00,VWS V13.01,2013-03-20 10:35:00,
2013-03-20 05:40:00,-1.5,-35.7,29.06,NW,313,0.0,0.0,17,0.00,,,0.00,VWS V13.01,2013-03-20 10:40:00,
2013-03-20 05:45:00,-1.5,-35.7,29.06,West,267,0.0,2.2,17,0.00,,,0.00,VWS V13.01,2013-03-20 10:45:00,
2013-03-20 05:50:00,-1.5,-35.7,29.06,NNW,331,0.0,2.2,17,0.00,,,0.00,VWS V13.01,2013-03-20 10:50:00,
2013-03-20 05:55:00,-1.1,-35.4,29.06,WNW,293,2.2,2.2,17,0.00,,,0.00,VWS V13.01,2013-03-20 10:55:00,
2013-03-20 06:00:00,-0.9,-35.2,29.06,WNW,283,0.0,0.0,17,0.00,,,0.00,VWS V13.01,2013-03-20 11:00:00,
2013-03-20 06:05:00,-0.9,-35.2,29.06,WSW,248,0.0,3.1,17,0.00,,,0.00,VWS V13.01,2013-03-20 11:05:00,
2013-03-20 06:10:00,-0.9,-35.2,29.06,West,271,0.0,3.1,17,0.00,,,0.00,VWS V13.01,2013-03-20 11:10:00,
2013-03-20 06:15:00,-1.3,-35.5,29.06,WNW,291,0.0,2.2,17,0.00,,,0.00,VWS V13.01,2013-03-20 11:15:00,
2013-03-20 06:20:00,-1.5,-35.7,29.06,WSW,258,5.4,5.4,17,0.00,,,0.00,VWS V13.01,2013-03-20 11:20:00,
2013-03-20 06:25:00,-1.7,-35.8,29.06,West,267,2.2,2.2,17,0.00,,,0.00,VWS V13.01,2013-03-20 11:25:00,
2013-03-20 06:30:00,-1.5,-35.7,29.06,West,268,0.0,4.0,17,0.00,,,0.00,VWS V13.01,2013-03-20 11:30:00,
2013-03-20 06:35:00,-1.8,-36.0,29.06,WNW,290,2.7,3.6,17,0.00,,,0.00,VWS V13.01,2013-03-20 11:35:00,
2013-03-20 06:40:00,-1.8,-36.0,29.06,NW,314,2.2,2.7,17,0.00,,,0.00,VWS V13.01,2013-03-20 11:40:00,
2013-03-20 06:45:00,-1.3,-35.5,29.06,WSW,249,3.1,5.4,17,0.00,,,0.00,VWS V13.01,2013-03-20 11:45:00,
2013-03-20 06:50:00,-1.3,-35.5,29.06,WNW,295,2.7,3.1,17,0.00,,,0.00,VWS V13.01,2013-03-20 11:50:00,
2013-03-20 06:55:00,-1.1,-35.4,29.06,NNW,327,4.0,4.0,17,0.00,,,0.00,VWS V13.01,2013-03-20 11:55:00,
2013-03-20 07:00:00,-0.9,-35.2,29.06,WNW,295,0.0,3.1,17,0.00,,,0.00,VWS V13.01,2013-03-20 12:00:00,
2013-03-20 07:05:00,-0.9,-35.2,29.06,WNW,287,0.0,3.1,17,0.00,,,0.00,VWS V13.01,2013-03-20 12:05:00,
2013-03-20 07:11:00,-0.9,-35.2,29.06,WNW,282,2.7,3.6,17,0.00,,,0.00,VWS V13.01,2013-03-20 12:11:00,
2013-03-20 07:16:00,-1.3,-35.5,29.06,SW,229,2.7,2.7,17,0.00,,,0.00,VWS V13.01,2013-03-20 12:16:00,
2013-03-20 07:21:00,-0.8,-35.1,29.06,NW,306,3.1,3.1,17,0.00,,,0.00,VWS V13.01,2013-03-20 12:21:00,
2013-03-20 07:25:00,-0.4,-34.8,29.06,WNW,303,0.0,0.0,17,0.00,,,0.00,VWS V13.01,2013-03-20 12:25:00,
2013-03-20 07:30:00,-0.2,-34.6,29.06,WNW,286,0.0,0.0,17,0.00,,,0.00,VWS V13.01,2013-03-20 12:30:00,
2013-03-20 07:35:00,0.0,-34.5,29.06,WSW,251,0.0,0.0,17,0.00,,,0.00,VWS V13.01,2013-03-20 12:35:00,
2013-03-20 07:40:00,0.7,-33.9,29.06,West,281,2.2,2.2,17,0.00,,,0.00,VWS V13.01,2013-03-20 12:40:00,
2013-03-20 07:45:00,1.9,-32.8,29.06,WNW,292,5.4,5.4,17,0.00,,,0.00,VWS V13.01,2013-03-20 12:45:00,
2013-03-20 07:50:00,3.4,-31.6,29.06,WNW,293,4.0,4.0,17,0.00,,,0.00,VWS V13.01,2013-03-20 12:50:00,
2013-03-20 07:55:00,4.1,-31.0,29.06,NW,318,2.7,2.7,17,0.00,,,0.00,VWS V13.01,2013-03-20 12:55:00,
2013-03-20 08:00:00,4.3,-30.9,29.06,NW,308,4.0,8.1,17,0.00,,,0.00,VWS V13.01,2013-03-20 13:00:00,
2013-03-20 08:05:00,5.5,-29.8,29.06,WNW,286,4.0,4.0,17,0.00,,,0.00,VWS V13.01,2013-03-20 13:05:00,
2013-03-20 08:10:00,6.1,-29.4,29.06,West,280,3.6,3.6,17,0.00,,,0.00,VWS V13.01,2013-03-20 13:10:00,
2013-03-20 08:15:00,7.3,-28.3,29.06,West,263,5.8,5.8,17,0.00,,,0.00,VWS V13.01,2013-03-20 13:15:00,
2013-03-20 08:20:00,8.1,-27.7,29.06,NNW,341,3.1,10.1,17,0.00,,,0.00,VWS V13.01,2013-03-20 13:20:00,
2013-03-20 08:25:00,9.0,-27.0,29.06,NNW,327,0.0,6.3,17,0.00,,,0.00,VWS V13.01,2013-03-20 13:25:00,
2013-03-20 08:30:00,8.8,-27.1,29.06,WNW,286,3.1,3.1,17,0.00,,,0.00,VWS V13.01,2013-03-20 13:30:00,
2013-03-20 08:35:00,8.8,-27.1,29.06,NW,317,4.0,4.0,17,0.00,,,0.00,VWS V13.01,2013-03-20 13:35:00,
2013-03-20 08:40:00,8.8,-27.1,29.06,WNW,297,2.2,3.1,17,0.00,,,0.00,VWS V13.01,2013-03-20 13:40:00,
2013-03-20 08:45:00,9.3,-26.7,29.06,WNW,284,8.3,8.3,17,0.00,,,0.00,VWS V13.01,2013-03-20 13:45:00,
2013-03-20 08:50:00,10.6,-25.6,29.06,WNW,299,3.1,3.6,17,0.00,,,0.00,VWS V13.01,2013-03-20 13:50:00,
2013-03-20 08:56:00,9.7,-26.4,29.06,West,278,8.7,8.7,17,0.00,,,0.00,VWS V13.01,2013-03-20 13:56:00,
2013-03-20 09:01:00,10.9,-25.3,29.06,WNW,291,3.6,3.6,17,0.00,,,0.00,VWS V13.01,2013-03-20 14:01:00,
2013-03-20 09:05:00,10.4,-25.8,29.06,WNW,301,6.3,9.6,17,0.00,,,0.00,VWS V13.01,2013-03-20 14:05:00,
2013-03-20 09:11:00,10.6,-25.6,29.06,West,267,5.4,5.4,17,0.00,,,0.00,VWS V13.01,2013-03-20 14:11:00,
2013-03-20 09:16:00,11.1,-25.2,29.06,West,271,5.4,8.1,17,0.00,,,0.00,VWS V13.01,2013-03-20 14:16:00,
2013-03-20 09:21:00,12.2,-24.3,29.06,WNW,291,5.8,8.3,17,0.00,,,0.00,VWS V13.01,2013-03-20 14:21:00,
2013-03-20 09:26:00,11.8,-24.6,29.06,West,268,3.6,5.8,17,0.00,,,0.00,VWS V13.01,2013-03-20 14:26:00,
2013-03-20 09:31:00,12.6,-24.0,29.06,West,273,4.0,8.3,17,0.00,,,0.00,VWS V13.01,2013-03-20 14:31:00,
2013-03-20 09:36:00,12.7,-25.0,29.06,NW,317,5.8,5.8,16,0.00,,,0.00,VWS V13.01,2013-03-20 14:36:00,
2013-03-20 09:41:00,15.3,-22.9,29.03,NW,311,3.1,3.6,16,0.00,,,0.00,VWS V13.01,2013-03-20 14:41:00,
2013-03-20 09:46:00,14.9,-23.2,29.03,WNW,293,3.1,4.0,16,0.00,,,0.00,VWS V13.01,2013-03-20 14:46:00,
2013-03-20 09:51:00,13.3,-24.5,29.03,WSW,254,6.3,8.1,16,0.00,,,0.00,VWS V13.01,2013-03-20 14:51:00,
2013-03-20 09:56:00,15.3,-22.9,29.03,WNW,289,4.0,6.3,16,0.00,,,0.00,VWS V13.01,2013-03-20 14:56:00,
2013-03-20 10:01:00,15.3,-22.9,29.03,WNW,297,5.8,5.8,16,0.00,,,0.00,VWS V13.01,2013-03-20 15:01:00,
2013-03-20 10:06:00,15.6,-22.6,29.03,NW,305,4.0,4.0,16,0.00,,,0.00,VWS V13.01,2013-03-20 15:06:00,
2013-03-20 10:11:00,16.5,-21.8,29.03,WNW,300,3.6,4.9,16,0.00,,,0.00,VWS V13.01,2013-03-20 15:11:00,
2013-03-20 10:16:00,16.9,-21.5,29.03,SW,231,3.1,3.6,16,0.00,,,0.00,VWS V13.01,2013-03-20 15:16:00,
2013-03-20 10:21:00,16.9,-21.5,29.03,NNW,329,6.3,6.3,16,0.00,,,0.00,VWS V13.01,2013-03-20 15:21:00,
2013-03-20 10:26:00,18.1,-21.7,29.03,NW,310,3.6,4.9,15,0.00,,,0.00,VWS V13.01,2013-03-20 15:26:00,
2013-03-20 10:31:00,17.6,-18.7,29.03,NW,326,5.4,8.7,18,0.00,,,0.00,VWS V13.01,2013-03-20 15:31:00,
2013-03-20 10:36:00,19.0,-17.5,29.03,NW,313,5.4,7.6,18,0.00,,,0.00,VWS V13.01,2013-03-20 15:36:00,
2013-03-20 10:41:00,18.7,-17.8,29.03,WNW,292,6.3,6.3,18,0.00,,,0.00,VWS V13.01,2013-03-20 15:41:00,
2013-03-20 10:46:00,19.4,-17.2,29.03,WNW,285,2.7,4.0,18,0.00,,,0.00,VWS V13.01,2013-03-20 15:46:00,
2013-03-20 10:51:00,20.3,-17.5,29.03,WNW,298,4.9,5.8,17,0.00,,,0.00,VWS V13.01,2013-03-20 15:51:00,
2013-03-20 10:56:00,20.3,-17.5,29.03,WNW,285,4.0,7.2,17,0.00,,,0.00,VWS V13.01,2013-03-20 15:56:00,
2013-03-20 11:01:00,21.7,-16.4,29.03,WNW,285,2.7,3.1,17,0.00,,,0.00,VWS V13.01,2013-03-20 16:01:00,
2013-03-20 11:06:00,20.7,-17.2,29.03,WNW,299,5.8,6.3,17,0.00,,,0.00,VWS V13.01,2013-03-20 16:06:00,
2013-03-20 11:11:00,20.3,-17.5,29.03,West,277,3.1,6.3,17,0.00,,,0.00,VWS V13.01,2013-03-20 16:11:00,
2013-03-20 11:16:00,21.9,-16.2,29.03,NNW,327,2.7,4.9,17,0.00,,,0.00,VWS V13.01,2013-03-20 16:16:00,
2013-03-20 11:21:00,22.5,-15.8,29.03,West,279,5.4,5.4,17,0.00,,,0.00,VWS V13.01,2013-03-20 16:21:00,
2013-03-20 11:26:00,22.3,-15.9,29.03,WNW,285,3.6,5.8,17,0.00,,,0.00,VWS V13.01,2013-03-20 16:26:00,
2013-03-20 11:31:00,20.8,-17.1,29.03,NW,315,5.4,7.6,17,0.00,,,0.00,VWS V13.01,2013-03-20 16:31:00,
2013-03-20 11:36:00,21.7,-16.4,29.03,WNW,285,5.4,6.3,17,0.00,,,0.00,VWS V13.01,2013-03-20 16:36:00,
2013-03-20 11:41:00,20.8,-17.1,29.03,NNW,331,6.7,6.7,17,0.00,,,0.00,VWS V13.01,2013-03-20 16:41:00,
2013-03-20 11:46:00,23.4,-15.0,29.03,WNW,298,2.7,5.8,17,0.00,,,0.00,VWS V13.01,2013-03-20 16:46:00,
2013-03-20 11:51:00,21.2,-16.8,29.03,SSW,199,5.4,8.3,17,0.00,,,0.00,VWS V13.01,2013-03-20 16:51:00,
2013-03-20 11:56:00,23.5,-14.9,29.00,WNW,283,3.6,7.2,17,0.00,,,0.00,VWS V13.01,2013-03-20 16:56:00,
2013-03-20 12:01:00,23.0,-15.3,29.00,WNW,291,6.3,6.3,17,0.00,,,0.00,VWS V13.01,2013-03-20 17:01:00,
2013-03-20 12:07:00,23.2,-15.2,29.00,NW,310,4.0,6.3,17,0.00,,,0.00,VWS V13.01,2013-03-20 17:07:00,
2013-03-20 12:12:00,22.8,-15.4,29.03,WNW,297,4.0,8.7,17,0.00,,,0.00,VWS V13.01,2013-03-20 17:12:00,
2013-03-20 12:17:00,24.1,-14.4,29.03,NNW,342,3.1,5.4,17,0.00,,,0.00,VWS V13.01,2013-03-20 17:17:00,
2013-03-20 12:22:00,22.6,-15.6,29.03,WNW,282,4.0,5.4,17,0.00,,,0.00,VWS V13.01,2013-03-20 17:22:00,
2013-03-20 12:27:00,25.3,-14.6,29.03,NW,316,3.1,5.4,16,0.00,,,0.00,VWS V13.01,2013-03-20 17:27:00,
2013-03-20 12:32:00,23.7,-14.7,29.03,NW,315,7.2,7.2,17,0.00,,,0.00,VWS V13.01,2013-03-20 17:32:00,
2013-03-20 12:37:00,26.6,-13.5,29.03,West,276,7.6,7.6,16,0.00,,,0.00,VWS V13.01,2013-03-20 17:37:00,
2013-03-20 12:42:00,24.6,-14.0,29.00,NNW,331,5.4,5.4,17,0.00,,,0.00,VWS V13.01,2013-03-20 17:42:00,
2013-03-20 12:47:00,25.7,-14.3,29.00,NW,314,4.0,4.0,16,0.00,,,0.00,VWS V13.01,2013-03-20 17:47:00,
2013-03-20 12:52:00,25.3,-14.6,29.00,WNW,284,3.6,3.6,16,0.00,,,0.00,VWS V13.01,2013-03-20 17:52:00,
2013-03-20 12:57:00,24.4,-14.1,29.00,NNW,333,3.1,5.4,17,0.00,,,0.00,VWS V13.01,2013-03-20 17:57:00,
2013-03-20 13:02:00,24.1,-14.4,29.00,NW,308,6.3,6.3,17,0.00,,,0.00,VWS V13.01,2013-03-20 18:02:00,
2013-03-20 13:07:00,25.9,-14.1,29.00,West,265,5.8,5.8,16,0.00,,,0.00,VWS V13.01,2013-03-20 18:07:00,
2013-03-20 13:12:00,26.1,-14.0,29.00,WNW,295,4.0,4.0,16,0.00,,,0.00,VWS V13.01,2013-03-20 18:12:00,
2013-03-20 13:17:00,23.0,-15.3,29.00,West,280,2.7,9.6,17,0.00,,,0.00,VWS V13.01,2013-03-20 18:17:00,
2013-03-20 13:22:00,24.1,-14.4,29.00,NW,326,2.7,8.1,17,0.00,,,0.00,VWS V13.01,2013-03-20 18:22:00,
2013-03-20 13:27:00,24.4,-14.1,29.00,SW,223,9.2,9.2,17,0.00,,,0.00,VWS V13.01,2013-03-20 18:27:00,
2013-03-20 13:32:00,23.4,-15.0,29.00,WSW,237,7.2,8.7,17,0.00,,,0.00,VWS V13.01,2013-03-20 18:32:00,
2013-03-20 13:37:00,23.7,-14.7,29.00,West,275,7.2,7.2,17,0.00,,,0.00,VWS V13.01,2013-03-20 18:37:00,
2013-03-20 13:42:00,25.0,-14.9,29.00,WNW,295,5.4,7.6,16,0.00,,,0.00,VWS V13.01,2013-03-20 18:42:00,
2013-03-20 13:47:00,25.9,-14.1,29.00,North,353,3.6,5.4,16,0.00,,,0.00,VWS V13.01,2013-03-20 18:47:00,
2013-03-20 13:53:00,25.0,-14.9,29.00,West,272,4.9,8.7,16,0.00,,,0.00,VWS V13.01,2013-03-20 18:53:00,
2013-03-20 13:58:00,27.9,-12.5,29.00,WNW,288,5.4,7.2,16,0.00,,,0.00,VWS V13.01,2013-03-20 18:58:00,
2013-03-20 14:03:00,26.4,-13.7,29.00,NW,326,6.3,6.3,16,0.00,,,0.00,VWS V13.01,2013-03-20 19:03:00,
2013-03-20 14:08:00,24.6,-14.0,29.00,NW,308,5.4,5.4,17,0.00,,,0.00,VWS V13.01,2013-03-20 19:08:00,
2013-03-20 14:13:00,25.2,-14.7,29.00,West,280,8.1,8.1,16,0.00,,,0.00,VWS V13.01,2013-03-20 19:13:00,
2013-03-20 14:18:00,26.8,-13.4,29.00,West,267,2.7,8.3,16,0.00,,,0.00,VWS V13.01,2013-03-20 19:18:00,
2013-03-20 14:22:00,25.3,-14.6,29.00,NW,321,4.9,4.9,16,0.00,,,0.00,VWS V13.01,2013-03-20 19:22:00,
2013-03-20 14:27:00,25.5,-14.4,28.97,West,273,5.8,8.7,16,0.00,,,0.00,VWS V13.01,2013-03-20 19:27:00,
2013-03-20 14:32:00,24.6,-14.0,28.97,SW,217,10.1,10.1,17,0.00,,,0.00,VWS V13.01,2013-03-20 19:32:00,
2013-03-20 14:37:00,24.6,-14.0,28.97,NW,324,6.3,8.3,17,0.00,,,0.00,VWS V13.01,2013-03-20 19:37:00,
2013-03-20 14:42:00,23.9,-14.6,28.97,West,276,6.3,6.3,17,0.00,,,0.00,VWS V13.01,2013-03-20 19:42:00,
2013-03-20 14:47:00,24.3,-14.3,28.97,WSW,251,5.8,5.8,17,0.00,,,0.00,VWS V13.01,2013-03-20 19:47:00,
2013-03-20 14:52:00,23.0,-15.3,28.97,West,275,7.2,7.2,17,0.00,,,0.00,VWS V13.01,2013-03-20 19:52:00,
2013-03-20 14:57:00,23.4,-15.0,28.97,WNW,302,8.1,8.1,17,0.00,,,0.00,VWS V13.01,2013-03-20 19:57:00,
2013-03-20 15:02:00,22.8,-15.4,28.97,NW,308,6.3,9.2,17,0.00,,,0.00,VWS V13.01,2013-03-20 20:02:00,
2013-03-20 15:08:00,23.5,-14.9,28.97,WNW,287,8.1,8.1,17,0.00,,,0.00,VWS V13.01,2013-03-20 20:08:00,
2013-03-20 15:13:00,24.6,-14.0,28.97,WNW,297,8.7,8.7,17,0.00,,,0.00,VWS V13.01,2013-03-20 20:13:00,
2013-03-20 15:18:00,24.1,-14.4,28.97,North,6,9.6,9.6,17,0.00,,,0.00,VWS V13.01,2013-03-20 20:18:00,
2013-03-20 15:23:00,25.3,-14.6,28.97,NW,307,8.3,8.3,16,0.00,,,0.00,VWS V13.01,2013-03-20 20:23:00,
2013-03-20 15:28:00,25.5,-14.4,28.97,WNW,303,3.1,3.6,16,0.00,,,0.00,VWS V13.01,2013-03-20 20:28:00,
2013-03-20 15:33:00,25.7,-14.3,28.97,WNW,292,5.8,5.8,16,0.00,,,0.00,VWS V13.01,2013-03-20 20:33:00,
2013-03-20 15:38:00,26.4,-13.7,28.97,NW,305,6.3,6.3,16,0.00,,,0.00,VWS V13.01,2013-03-20 20:38:00,
2013-03-20 15:43:00,27.0,-13.2,28.97,West,276,3.6,4.0,16,0.00,,,0.00,VWS V13.01,2013-03-20 20:43:00,
2013-03-20 15:48:00,26.6,-13.5,28.97,North,0,7.6,11.9,16,0.00,,,0.00,VWS V13.01,2013-03-20 20:48:00,
2013-03-20 15:53:00,28.6,-13.2,28.97,WNW,297,3.6,4.9,15,0.00,,,0.00,VWS V13.01,2013-03-20 20:53:00,
2013-03-20 15:58:00,28.6,-13.2,28.97,NW,318,3.1,5.8,15,0.00,,,0.00,VWS V13.01,2013-03-20 20:58:00,
2013-03-20 16:03:00,28.6,-13.2,28.97,WNW,299,5.8,6.3,15,0.00,,,0.00,VWS V13.01,2013-03-20 21:03:00,
2013-03-20 16:08:00,26.4,-13.7,28.97,WNW,283,8.1,8.1,16,0.00,,,0.00,VWS V13.01,2013-03-20 21:08:00,
2013-03-20 16:13:00,26.4,-13.7,28.97,NNW,336,4.9,4.9,16,0.00,,,0.00,VWS V13.01,2013-03-20 21:13:00,
2013-03-20 16:18:00,27.5,-12.8,28.97,NW,321,5.8,5.8,16,0.00,,,0.00,VWS V13.01,2013-03-20 21:18:00,
2013-03-20 16:23:00,27.1,-13.1,28.97,WNW,303,5.8,5.8,16,0.00,,,0.00,VWS V13.01,2013-03-20 21:23:00,
2013-03-20 16:28:00,28.9,-12.9,28.97,NW,307,12.8,12.8,15,0.00,,,0.00,VWS V13.01,2013-03-20 21:28:00,
2013-03-20 16:33:00,28.6,-13.2,28.97,NW,323,2.7,2.7,15,0.00,,,0.00,VWS V13.01,2013-03-20 21:33:00,
2013-03-20 16:38:00,28.2,-12.2,28.97,West,276,3.1,6.3,16,0.00,,,0.00,VWS V13.01,2013-03-20 21:38:00,
2013-03-20 16:43:00,28.0,-12.4,28.97,NNW,331,5.8,6.3,16,0.00,,,0.00,VWS V13.01,2013-03-20 21:43:00,
2013-03-20 16:48:00,27.0,-13.2,28.97,West,270,3.1,3.6,16,0.00,,,0.00,VWS V13.01,2013-03-20 21:48:00,
2013-03-20 16:53:00,27.0,-13.2,28.97,West,275,3.6,7.6,16,0.00,,,0.00,VWS V13.01,2013-03-20 21:53:00,
2013-03-20 16:58:00,25.9,-14.1,28.97,NW,310,3.6,7.2,16,0.00,,,0.00,VWS V13.01,2013-03-20 21:58:00,
2013-03-20 17:03:00,27.7,-12.6,28.97,WNW,298,4.0,8.1,16,0.00,,,0.00,VWS V13.01,2013-03-20 22:03:00,
2013-03-20 17:08:00,27.1,-13.1,28.97,West,263,3.1,5.4,16,0.00,,,0.00,VWS V13.01,2013-03-20 22:08:00,
2013-03-20 17:13:00,27.7,-12.6,28.97,WNW,287,3.6,5.4,16,0.00,,,0.00,VWS V13.01,2013-03-20 22:13:00,
2013-03-20 17:18:00,26.6,-13.5,28.97,NW,326,3.1,3.1,16,0.00,,,0.00,VWS V13.01,2013-03-20 22:18:00,
2013-03-20 17:23:00,25.9,-14.1,28.97,West,269,8.1,8.1,16,0.00,,,0.00,VWS V13.01,2013-03-20 22:23:00,
2013-03-20 17:28:00,27.0,-13.2,28.97,NNW,345,4.0,5.4,16,0.00,,,0.00,VWS V13.01,2013-03-20 22:28:00,
2013-03-20 17:33:00,25.5,-14.4,28.97,WNW,294,4.0,5.4,16,0.00,,,0.00,VWS V13.01,2013-03-20 22:33:00,
2013-03-20 17:38:00,26.1,-14.0,28.97,WSW,253,5.4,9.6,16,0.00,,,0.00,VWS V13.01,2013-03-20 22:38:00,
2013-03-20 17:43:00,25.7,-14.3,28.97,NW,320,3.1,3.1,16,0.00,,,0.00,VWS V13.01,2013-03-20 22:43:00,
2013-03-20 17:48:00,24.4,-14.1,28.97,WNW,297,3.6,5.8,17,0.00,,,0.00,VWS V13.01,2013-03-20 22:48:00,
2013-03-20 17:53:00,24.4,-14.1,28.97,NNW,341,3.6,4.0,17,0.00,,,0.00,VWS V13.01,2013-03-20 22:53:00,
2013-03-20 17:58:00,23.2,-15.2,28.97,NW,306,3.6,7.6,17,0.00,,,0.00,VWS V13.01,2013-03-20 22:58:00,
2013-03-20 18:03:00,24.1,-14.4,28.97,NW,304,5.4,6.3,17,0.00,,,0.00,VWS V13.01,2013-03-20 23:03:00,
2013-03-20 18:08:00,24.1,-14.4,28.97,NW,304,4.9,4.9,17,0.00,,,0.00,VWS V13.01,2013-03-20 23:08:00,
2013-03-20 18:13:00,23.7,-14.7,28.97,West,280,2.7,2.7,17,0.00,,,0.00,VWS V13.01,2013-03-20 23:13:00,
2013-03-20 18:18:00,21.6,-16.5,28.97,West,268,5.4,5.4,17,0.00,,,0.00,VWS V13.01,2013-03-20 23:18:00,
2013-03-20 18:23:00,22.8,-15.4,28.97,West,268,2.2,4.9,17,0.00,,,0.00,VWS V13.01,2013-03-20 23:23:00,
2013-03-20 18:28:00,21.7,-16.4,28.97,SW,223,3.6,4.0,17,0.00,,,0.00,VWS V13.01,2013-03-20 23:28:00,
2013-03-20 18:33:00,20.3,-20.0,28.97,WNW,297,4.0,4.9,15,0.00,,,0.00,VWS V13.01,2013-03-20 23:33:00,
2013-03-20 18:38:00,18.7,-21.3,28.97,NNW,340,3.1,4.0,15,0.00,,,0.00,VWS V13.01,2013-03-20 23:38:00,
2013-03-20 18:43:00,17.8,-22.0,28.97,WNW,299,0.0,3.1,15,0.00,,,0.00,VWS V13.01,2013-03-20 23:43:00,
2013-03-20 18:48:00,16.9,-21.5,28.97,WNW,286,3.1,5.8,16,0.00,,,0.00,VWS V13.01,2013-03-20 23:48:00,
2013-03-20 18:53:00,16.5,-21.8,28.97,West,271,5.4,5.4,16,0.00,,,0.00,VWS V13.01,2013-03-20 23:53:00,
2013-03-20 18:58:00,16.2,-22.1,28.97,WNW,285,3.1,3.1,16,0.00,,,0.00,VWS V13.01,2013-03-20 23:58:00,
2013-03-20 19:03:00,15.8,-22.4,28.97,WNW,298,3.6,3.6,16,0.00,,,0.00,VWS V13.01,2013-03-21 00:03:00,
2013-03-20 19:08:00,15.1,-23.0,28.97,NW,311,3.6,4.9,16,0.00,,,0.00,VWS V13.01,2013-03-21 00:08:00,
2013-03-20 19:13:00,14.9,-23.2,28.97,WNW,291,2.7,3.1,16,0.00,,,0.00,VWS V13.01,2013-03-21 00:13:00,
2013-03-20 19:18:00,14.4,-23.6,28.97,WNW,287,2.7,5.8,16,0.00,,,0.00,VWS V13.01,2013-03-21 00:18:00,
2013-03-20 19:23:00,13.6,-24.2,28.97,NNW,332,2.2,2.7,16,0.00,,,0.00,VWS V13.01,2013-03-21 00:23:00,
2013-03-20 19:28:00,12.6,-25.1,28.97,WNW,286,0.0,0.0,16,0.00,,,0.00,VWS V13.01,2013-03-21 00:28:00,
2013-03-20 19:33:00,11.8,-25.7,28.97,West,261,0.0,2.7,16,0.00,,,0.00,VWS V13.01,2013-03-21 00:33:00,
2013-03-20 19:38:00,11.5,-26.0,28.97,WSW,252,0.0,0.0,16,0.00,,,0.00,VWS V13.01,2013-03-21 00:38:00,
2013-03-20 19:43:00,10.8,-26.6,28.97,West,269,0.0,0.0,16,0.00,,,0.00,VWS V13.01,2013-03-21 00:43:00,
2013-03-20 19:48:00,10.2,-27.0,28.97,West,270,0.0,0.0,16,0.00,,,0.00,VWS V13.01,2013-03-21 00:48:00,
2013-03-20 19:53:00,9.7,-27.5,28.97,West,270,2.7,3.1,16,0.00,,,0.00,VWS V13.01,2013-03-21 00:53:00,
2013-03-20 19:58:00,9.7,-27.5,28.97,West,275,0.0,0.0,16,0.00,,,0.00,VWS V13.01,2013-03-21 00:58:00,
2013-03-20 20:03:00,9.7,-27.5,28.97,NW,321,3.1,3.1,16,0.00,,,0.00,VWS V13.01,2013-03-21 01:03:00,
2013-03-20 20:08:00,9.3,-27.8,28.97,West,271,2.2,2.7,16,0.00,,,0.00,VWS V13.01,2013-03-21 01:08:00,
2013-03-20 20:13:00,8.4,-28.5,28.97,WSW,247,0.0,0.0,16,0.00,,,0.00,VWS V13.01,2013-03-21 01:13:00,
2013-03-20 20:18:00,8.6,-28.4,28.97,West,271,0.0,0.0,16,0.00,,,0.00,VWS V13.01,2013-03-21 01:18:00,
2013-03-20 20:23:00,8.1,-28.8,28.97,West,280,0.0,0.0,16,0.00,,,0.00,VWS V13.01,2013-03-21 01:23:00,
2013-03-20 20:28:00,7.9,-29.0,28.97,West,259,0.0,0.0,16,0.00,,,0.00,VWS V13.01,2013-03-21 01:28:00,
2013-03-20 20:33:00,7.5,-29.3,28.97,WSW,247,0.0,0.0,16,0.00,,,0.00,VWS V13.01,2013-03-21 01:33:00,
2013-03-20 20:38:00,7.9,-29.0,28.97,WNW,289,0.0,0.0,16,0.00,,,0.00,VWS V13.01,2013-03-21 01:38:00,
2013-03-20 20:43:00,7.9,-29.0,28.97,WNW,300,0.0,2.7,16,0.00,,,0.00,VWS V13.01,2013-03-21 01:43:00,
2013-03-20 20:48:00,7.7,-29.1,28.97,West,275,0.0,2.2,16,0.00,,,0.00,VWS V13.01,2013-03-21 01:48:00,
2013-03-20 20:53:00,8.1,-28.8,28.97,WNW,298,2.2,2.2,16,0.00,,,0.00,VWS V13.01,2013-03-21 01:53:00,
2013-03-20 20:58:00,7.7,-29.1,28.97,WNW,300,0.0,0.0,16,0.00,,,0.00,VWS V13.01,2013-03-21 01:58:00,
2013-03-20 21:03:00,7.9,-29.0,28.97,WNW,300,0.0,2.2,16,0.00,,,0.00,VWS V13.01,2013-03-21 02:03:00,
2013-03-20 21:08:00,7.9,-29.0,28.97,NW,314,2.2,2.2,16,0.00,,,0.00,VWS V13.01,2013-03-21 02:08:00,
2013-03-20 21:13:00,7.3,-29.4,28.97,West,277,0.0,0.0,16,0.00,,,0.00,VWS V13.01,2013-03-21 02:13:00,
2013-03-20 21:18:00,7.5,-29.3,28.97,WNW,297,0.0,0.0,16,0.00,,,0.00,VWS V13.01,2013-03-21 02:18:00,
2013-03-20 21:23:00,7.0,-29.7,28.97,WNW,282,0.0,0.0,16,0.00,,,0.00,VWS V13.01,2013-03-21 02:23:00,
2013-03-20 21:28:00,6.6,-30.0,28.97,WNW,290,0.0,0.0,16,0.00,,,0.00,VWS V13.01,2013-03-21 02:28:00,
2013-03-20 21:33:00,6.6,-30.0,28.97,WNW,294,0.0,3.1,16,0.00,,,0.00,VWS V13.01,2013-03-21 02:33:00,
2013-03-20 21:38:00,5.9,-30.6,28.97,WNW,294,0.0,0.0,16,0.00,,,0.00,VWS V13.01,2013-03-21 02:38:00,
2013-03-20 21:43:00,5.4,-31.1,28.97,WNW,294,0.0,0.0,16,0.00,,,0.00,VWS V13.01,2013-03-21 02:43:00,
2013-03-20 21:48:00,5.4,-31.1,28.97,WNW,293,0.0,0.0,16,0.00,,,0.00,VWS V13.01,2013-03-21 02:48:00,
2013-03-20 21:53:00,5.2,-31.2,28.97,WNW,293,0.0,0.0,16,0.00,,,0.00,VWS V13.01,2013-03-21 02:53:00,
2013-03-20 21:58:00,5.4,-31.1,28.97,WNW,297,0.0,0.0,16,0.00,,,0.00,VWS V13.01,2013-03-21 02:58:00,
2013-03-20 22:03:00,4.8,-31.5,28.97,WNW,297,0.0,0.0,16,0.00,,,0.00,VWS V13.01,2013-03-21 03:03:00,
2013-03-20 22:08:00,5.4,-31.1,28.97,WNW,293,0.0,0.0,16,0.00,,,0.00,VWS V13.01,2013-03-21 03:08:00,
2013-03-20 22:13:00,5.2,-31.2,28.97,WNW,288,0.0,0.0,16,0.00,,,0.00,VWS V13.01,2013-03-21 03:13:00,
2013-03-20 22:18:00,5.0,-31.4,28.97,WNW,288,0.0,0.0,16,0.00,,,0.00,VWS V13.01,2013-03-21 03:18:00,
2013-03-20 22:23:00,4.5,-31.8,28.97,WNW,288,0.0,0.0,16,0.00,,,0.00,VWS V13.01,2013-03-21 03:23:00,
2013-03-20 22:28:00,4.5,-31.8,28.97,WNW,288,0.0,0.0,16,0.00,,,0.00,VWS V13.01,2013-03-21 03:28:00,
2013-03-20 22:33:00,4.6,-31.7,28.97,WNW,289,2.2,2.2,16,0.00,,,0.00,VWS V13.01,2013-03-21 03:33:00,
2013-03-20 22:38:00,4.8,-31.5,28.97,WNW,289,0.0,0.0,16,0.00,,,0.00,VWS V13.01,2013-03-21 03:38:00,
2013-03-20 22:43:00,4.6,-31.7,28.97,West,277,0.0,0.0,16,0.00,,,0.00,VWS V13.01,2013-03-21 03:43:00,
2013-03-20 22:48:00,4.8,-31.5,28.97,WSW,256,3.1,3.1,16,0.00,,,0.00,VWS V13.01,2013-03-21 03:48:00,
2013-03-20 22:53:00,4.6,-31.7,28.97,West,268,0.0,0.0,16,0.00,,,0.00,VWS V13.01,2013-03-21 03:53:00,
2013-03-20 22:58:00,4.1,-32.1,28.97,West,268,0.0,0.0,16,0.00,,,0.00,VWS V13.01,2013-03-21 03:58:00,
2013-03-20 23:00:00,3.7,-32.4,28.97,West,268,0.0,0.0,16,0.00,,,0.00,VWS V13.01,2013-03-21 04:00:00,
2013-03-20 23:05:00,3.7,-32.4,28.97,West,269,0.0,0.0,16,0.00,,,0.00,VWS V13.01,2013-03-21 04:05:00,
2013-03-20 23:10:00,2.5,-33.5,28.97,West,269,0.0,0.0,16,0.00,,,0.00,VWS V13.01,2013-03-21 04:10:00,
2013-03-20 23:15:00,1.6,-34.2,28.97,West,269,0.0,0.0,16,0.00,,,0.00,VWS V13.01,2013-03-21 04:15:00,
2013-03-20 23:20:00,1.2,-34.5,28.97,West,269,0.0,0.0,16,0.00,,,0.00,VWS V13.01,2013-03-21 04:20:00,
2013-03-20 23:25:00,1.2,-34.5,28.97,West,269,0.0,0.0,16,0.00,,,0.00,VWS V13.01,2013-03-21 04:25:00,
2013-03-20 23:30:00,1.2,-34.5,28.97,West,269,0.0,0.0,16,0.00,,,0.00,VWS V13.01,2013-03-21 04:30:00,
2013-03-20 23:35:00,1.2,-34.5,28.97,West,269,0.0,0.0,16,0.00,,,0.00,VWS V13.01,2013-03-21 04:35:00,
2013-03-20 23:40:00,1.2,-34.5,28.97,West,269,0.0,0.0,16,0.00,,,0.00,VWS V13.01,2013-03-21 04:40:00,
2013-03-20 23:45:00,1.2,-34.5,28.97,West,269,0.0,0.0,16,0.00,,,0.00,VWS V13.01,2013-03-21 04:45:00,
2013-03-20 23:50:00,1.2,-34.5,28.97,West,269,0.0,0.0,16,0.00,,,0.00,VWS V13.01,2013-03-21 04:50:00,
2013-03-20 23:55:00,1.6,-34.2,28.97,West,269,0.0,0.0,16,0.00,,,0.00,VWS V13.01,2013-03-21 04:55:00,